DW9716 Weather Reports


time (UTC)temp
C
wind
direction
speed
KPH
gust
KPH
rain 1hr
cm
rain 24hr
cm
rain mn
cm
humidity
%
barometer
mb
20260506084607 10 146 0.0 0.0 0.00 0.00 0.00 94 1019.4
20260506083031 10 146 0.0 0.0 0.00 0.00 0.00 95 1019.4
20260506081536 -17 0.0 0.0 0.00 0.00 0.00 1019.3
20260506073014 -17 0.0 0.0 0.00 0.00 0.00 1019.5
20260506071508 -17 0.0 0.0 0.00 0.00 0.00 1019.5
20260506061558 8 147 0.0 0.0 0.00 0.00 0.00 99 1019.7
20260506044549 7 146 0.0 0.0 0.00 0.00 0.00 96 1019.9
20260506043049 7 148 0.0 0.0 0.00 0.00 0.00 94 1019.8
20260506041558 7 150 0.0 0.0 0.00 0.00 0.00 93 1019.7
20260506040045 7 148 0.0 0.0 0.00 0.00 0.00 92 1019.6
20260506034544 7 156 0.0 0.0 0.00 0.00 0.00 90 1019.5
20260506033042 7 142 0.0 0.0 0.00 0.00 0.00 89 1019.4
20260506031542 7 123 0.0 0.0 0.00 0.00 0.00 90 1019.0
20260506030039 7 155 0.0 0.0 0.00 0.00 0.00 90 1018.9
20260506024538 7 153 0.0 0.0 0.00 0.00 0.00 89 1018.9
20260506023051 7 141 0.0 0.0 0.00 0.00 0.00 89 1018.8
20260506021559 7 360 0.0 0.0 0.00 0.00 0.00 87 1018.8
20260506020032 7 149 0.0 0.0 0.00 0.00 0.00 87 1018.6
20260506014530 7 151 0.0 0.0 0.00 0.00 0.00 87 1018.4
20260506013033 7 161 0.0 0.0 0.00 0.00 0.00 86 1018.0
20260506011526 7 159 0.0 0.0 0.00 0.00 0.00 87 1017.9
20260506010024 7 143 0.0 0.0 0.00 0.00 0.00 87 1017.6
20260506004527 7 148 0.0 0.0 0.00 0.00 0.00 87 1017.2
20260506003021 7 140 0.0 0.0 0.00 0.00 0.00 87 1017.0
20260506001518 6 148 0.0 0.0 0.00 0.00 0.00 88 1016.6
20260506000016 6 158 0.0 0.0 0.00 0.00 0.00 87 1016.4
20260505234516 7 128 0.0 0.0 0.00 0.00 0.00 86 1016.3
20260505233014 7 148 0.0 0.0 0.00 0.00 0.00 85 1016.1
20260505231529 8 150 0.0 0.0 0.00 0.00 0.00 83 1015.7
20260505230021 8 360 0.0 0.0 0.00 0.00 0.00 82 1015.3
20260505224513 8 149 0.0 0.0 0.00 0.00 0.00 81 1015.3
20260505223008 8 150 0.0 0.0 0.00 0.00 0.00 79 1015.0
20260505221506 9 157 0.0 0.0 0.00 0.00 0.00 78 1014.8
20260505220004 10 143 0.0 0.0 0.00 0.00 0.00 76 1014.5
20260505214502 10 153 0.0 0.0 0.00 0.00 0.00 73 1014.3
20260505213002 11 360 0.0 0.0 0.00 0.00 0.00 70 1014.0
20260505211558 12 146 0.0 0.0 0.00 0.00 0.00 66 1013.6
20260505210057 12 138 0.0 0.0 0.00 0.00 0.00 60 1013.5
20260505204556 13 142 0.0 0.0 0.00 0.00 0.00 55 1013.4
20260505203120 13 144 0.0 0.0 0.00 0.00 0.00 52 1013.4
20260505201601 12 155 0.0 0.0 0.00 0.00 0.00 46 1013.2
20260505200056 13 136 0.0 0.0 0.00 0.00 0.00 47 1013.1
20260505194553 13 153 0.0 0.0 0.00 0.00 0.00 47 1012.9
20260505193051 13 151 0.0 0.0 0.00 0.00 0.00 50 1012.8
20260505191600 13 360 0.0 0.0 0.00 0.00 0.00 50 1012.5
20260505190048 13 151 0.0 0.0 0.00 0.00 0.00 51 1012.3
20260505184547 13 149 0.0 0.0 0.00 0.00 0.00 52 1012.3
20260505183047 13 138 0.0 0.0 0.00 0.00 0.00 52 1012.3
20260505181547 13 154 0.0 0.0 0.00 0.00 0.00 52 1012.2
20260505180049 13 360 0.0 0.0 0.00 0.00 0.00 51 1012.1
20260505174545 13 150 0.0 0.0 0.00 0.00 0.00 51 1012.1
20260505173043 13 134 0.0 0.0 0.00 0.00 0.00 48 1012.0
20260505171545 13 163 0.0 0.0 0.00 0.00 0.00 48 1011.9
20260505170100 13 144 0.0 0.0 0.00 0.00 0.00 50 1011.8
20260505164541 13 360 0.0 0.0 0.00 0.00 0.00 47 1011.7
20260505163037 13 360 0.0 0.0 0.00 0.00 0.00 46 1011.7
20260505161534 12 360 0.0 0.0 0.00 0.00 0.00 47 1011.4
20260505153028 12 360 0.0 0.0 0.00 0.00 0.00 54 1011.1
20260505151525 12 152 0.0 0.0 0.00 0.00 0.00 54 1010.8
20260505124502 10 160 0.0 0.0 0.00 0.00 0.00 79 1009.6
20260505123059 9 360 0.0 0.0 0.00 0.00 0.00 81 1009.2
20260505121624 8 155 0.0 0.0 0.00 0.00 0.00 82 1009.0
20260505120055 8 157 0.0 0.0 0.00 0.00 0.00 83 1009.0
20260505114551 7 140 0.0 0.0 0.00 0.00 0.00 84 1009.0
20260505113048 7 161 0.0 0.0 0.00 0.00 0.00 85 1008.7
20260505111546 7 145 0.0 0.0 0.00 0.00 0.00 86 1008.2
20260505101551 6 146 0.0 0.0 0.00 0.00 0.00 88 1007.8
20260505100037 5 136 0.0 0.0 0.00 0.00 0.00 88 1007.7
20260505094538 6 360 0.0 0.0 0.00 0.00 0.00 86 1007.6
20260505093040 6 145 0.0 0.0 0.00 0.00 0.00 86 1007.0
20260505091531 5 149 0.0 0.0 0.00 0.00 0.00 88 1006.6
20260505090039 5 134 0.0 0.0 0.00 0.00 0.00 89 1006.8